QPF
0.00 0.01 0.01 0.02 0.02 0.02 0.02 0.02 0.02 0.02 0.01 0.01 0.01 0.01 0.02 0.02 0.04 0.05 0.05 0.05 0.04 0.04 0.03 0.03 0.03 0.04 0.04 0.05 0.05 0.04 0.04 0.02 0.03 0.04 0.04 0.03 0.04 0.07 0.10 0.10 0.06 0.04 0.05
0.00 0.00 0.01 0.02 0.02 0.01 0.01 0.02 0.01 0.01 0.01 0.01 0.01 0.02 0.02 0.03 0.03 0.03 0.03 0.03 0.03 0.03 0.03 0.02 0.02 0.02 0.02 0.02 0.03 0.03 0.03 0.03 0.02 0.03 0.03 0.02 0.02 0.04 0.08 0.11 0.08 0.05 0.05
0.00 0.00 0.01 0.01 0.01 0.01 0.01 0.01 0.01 0.01 0.01 0.01 0.01 0.02 0.02 0.02 0.02 0.02 0.03 0.02 0.03 0.02 0.02 0.02 0.02 0.02 0.02 0.03 0.03 0.03 0.03 0.03 0.03 0.03 0.04 0.03 0.01 0.03 0.05 0.07 0.07 0.07 0.06
0.00 0.00 0.01 0.01 0.01 0.01 0.01 0.01 0.01 0.01 0.01 0.01 0.01 0.01 0.01 0.01 0.01 0.02 0.02 0.02 0.02 0.02 0.02 0.02 0.03 0.03 0.04 0.02 0.02 0.02 0.02 0.02 0.02 0.02 0.02 0.02 0.02 0.04 0.07 0.06 0.06 0.08 0.08
0.00 0.00 0.01 0.01 0.01 0.00 0.00 0.01 0.01 0.01 0.01 0.01 0.01 0.01 0.01 0.01 0.01 0.01 0.02 0.02 0.01 0.02 0.02 0.02 0.02 0.02 0.02 0.02 0.02 0.02 0.01 0.01 0.01 0.01 0.01 0.03 0.04 0.07 0.08 0.06 0.05 0.05 0.05
0.00 0.01 0.01 0.01 0.01 0.00 0.01 0.01 0.01 0.01 0.01 0.01 0.01 0.01 0.02 0.01 0.01 0.01 0.01 0.01 0.02 0.02 0.03 0.04 0.03 0.02 0.02 0.02 0.02 0.02 0.02 0.01 0.00 0.01 0.02 0.03 0.03 0.06 0.08 0.07 0.05 0.06 0.06
0.00 0.01 0.01 0.01 0.01 0.01 0.01 0.01 0.01 0.01 0.01 0.01 0.01 0.02 0.02 0.02 0.01 0.01 0.01 0.01 0.01 0.02 0.02 0.03 0.02 0.03 0.03 0.03 0.03 0.03 0.02 0.01 0.01 0.01 0.02 0.04 0.03 0.04 0.07 0.07 0.06 0.06 0.05
0.00 0.01 0.01 0.02 0.01 0.01 0.01 0.01 0.02 0.02 0.02 0.02 0.02 0.02 0.02 0.02 0.01 0.02 0.01 0.01 0.01 0.02 0.02 0.02 0.03 0.03 0.04 0.03 0.03 0.03 0.03 0.01 0.01 0.01 0.02 0.03 0.03 0.04 0.04 0.04 0.04 0.04 0.03
0.00 0.01 0.01 0.02 0.02 0.01 0.01 0.02 0.02 0.02 0.02 0.02 0.02 0.03 0.02 0.01 0.01 0.01 0.01 0.01 0.01 0.02 0.03 0.04 0.04 0.04 0.05 0.04 0.02 0.03 0.04 0.03 0.03 0.02 0.01 0.02 0.02 0.04 0.03 0.02 0.02 0.02 0.02
0.03 0.03 0.02 0.01 0.02 0.02 0.01 0.01 0.02 0.02 0.02 0.02 0.02 0.02 0.03 0.02 0.01 0.01 0.01 0.01 0.01 0.01 0.02 0.03 0.04 0.04 0.04 0.04 0.04 0.04 0.03 0.04 0.03 0.02 0.02 0.01 0.02 0.03 0.03 0.02 0.02 0.02 0.02
0.03 0.03 0.02 0.01 0.01 0.02 0.01 0.01 0.02 0.02 0.02 0.02 0.03 0.03 0.04 0.04 0.02 0.01 0.01 0.01 0.01 0.01 0.02 0.02 0.03 0.03 0.04 0.04 0.05 0.05 0.03 0.02 0.02 0.02 0.03 0.01 0.02 0.04 0.03 0.03 0.02 0.02 0.02
0.02 0.02 0.02 0.02 0.02 0.01 0.01 0.03 0.04 0.04 0.03 0.04 0.04 0.04 0.05 0.04 0.03 0.01 0.02 0.02 0.02 0.02 0.02 0.02 0.02 0.02 0.02 0.03 0.04 0.03 0.02 0.02 0.02 0.03 0.02 0.01 0.03 0.04 0.03 0.02 0.02 0.01 0.01
0.02 0.02 0.02 0.02 0.02 0.02 0.02 0.02 0.03 0.04 0.03 0.03 0.03 0.03 0.03 0.02 0.01 0.01 0.03 0.04 0.04 0.03 0.03 0.02 0.02 0.02 0.02 0.04 0.05 0.02 0.02 0.02 0.02 0.03 0.03 0.02 0.03 0.04 0.02 0.02 0.02 0.02 0.02
0.01 0.02 0.02 0.02 0.03 0.02 0.02 0.02 0.02 0.02 0.02 0.02 0.02 0.01 0.01 0.02 0.02 0.02 0.03 0.03 0.03 0.05 0.06 0.03 0.04 0.04 0.03 0.03 0.03 0.02 0.03 0.03 0.03 0.04 0.04 0.02 0.03 0.04 0.04 0.03 0.03 0.04 0.04
0.02 0.03 0.02 0.02 0.02 0.02 0.03 0.03 0.02 0.02 0.01 0.01 0.01 0.01 0.02 0.02 0.02 0.02 0.02 0.02 0.02 0.03 0.03 0.04 0.04 0.03 0.04 0.03 0.03 0.03 0.04 0.04 0.03 0.03 0.03 0.02 0.02 0.03 0.04 0.05 0.05 0.05 0.06
0.01 0.02 0.02 0.03 0.03 0.03 0.03 0.04 0.04 0.03 0.02 0.01 0.01 0.02 0.02 0.02 0.02 0.02 0.02 0.02 0.02 0.03 0.03 0.02 0.03 0.04 0.04 0.05 0.06 0.04 0.05 0.03 0.02 0.02 0.02 0.02 0.02 0.02 0.03 0.05 0.05 0.05 0.06
0.03 0.02 0.03 0.04 0.04 0.03 0.02 0.03 0.03 0.03 0.02 0.01 0.02 0.02 0.02 0.03 0.03 0.03 0.03 0.03 0.03 0.04 0.04 0.04 0.04 0.03 0.04 0.05 0.08 0.06 0.05 0.06 0.05 0.03 0.02 0.04 0.03 0.02 0.02 0.03 0.03 0.04 0.04
0.04 0.03 0.04 0.03 0.03 0.03 0.02 0.03 0.02 0.03 0.03 0.02 0.02 0.02 0.02 0.03 0.04 0.05 0.04 0.03 0.03 0.03 0.03 0.05 0.04 0.05 0.07 0.09 0.11 0.09 0.07 0.08 0.07 0.04 0.03 0.03 0.05 0.05 0.05 0.03 0.03 0.03 0.02
0.02 0.03 0.03 0.03 0.02 0.02 0.02 0.02 0.03 0.04 0.05 0.04 0.03 0.03 0.03 0.02 0.04 0.04 0.03 0.04 0.03 0.02 0.02 0.02 0.04 0.07 0.10 0.10 0.08 0.08 0.07 0.07 0.07 0.04 0.03 0.03 0.05 0.05 0.06 0.03 0.02 0.03 0.03
0.03 0.03 0.03 0.03 0.03 0.03 0.03 0.03 0.05 0.05 0.06 0.05 0.04 0.03 0.03 0.03 0.04 0.03 0.03 0.04 0.03 0.04 0.05 0.05 0.07 0.09 0.10 0.09 0.05 0.05 0.05 0.04 0.04 0.05 0.04 0.03 0.04 0.03 0.04 0.04 0.05 0.04 0.03
0.02 0.03 0.03 0.03 0.03 0.03 0.05 0.05 0.05 0.04 0.05 0.05 0.04 0.04 0.05 0.06 0.07 0.05 0.05 0.06 0.05 0.06 0.08 0.07 0.07 0.07 0.07 0.07 0.08 0.07 0.05 0.02 0.03 0.03 0.02 0.03 0.03 0.04 0.04 0.05 0.07 0.06 0.04
0.01 0.02 0.02 0.04 0.04 0.03 0.04 0.07 0.07 0.07 0.06 0.06 0.06 0.05 0.06 0.06 0.08 0.07 0.07 0.06 0.06 0.09 0.08 0.07 0.08 0.08 0.05 0.05 0.07 0.08 0.06 0.06 0.04 0.02 0.03 0.03 0.03 0.03 0.03 0.03 0.05 0.06 0.05
0.01 0.01 0.01 0.03 0.05 0.05 0.06 0.09 0.11 0.12 0.11 0.08 0.06 0.06 0.06 0.06 0.07 0.06 0.06 0.06 0.08 0.06 0.06 0.08 0.09 0.11 0.08 0.05 0.05 0.06 0.06 0.05 0.04 0.03 0.03 0.03 0.03 0.04 0.04 0.03 0.03 0.02 0.03
0.01 0.02 0.03 0.04 0.06 0.07 0.08 0.10 0.10 0.09 0.10 0.07 0.05 0.04 0.06 0.07 0.07 0.06 0.07 0.06 0.07 0.06 0.08 0.07 0.07 0.08 0.09 0.08 0.06 0.04 0.03 0.04 0.04 0.04 0.02 0.02 0.02 0.03 0.03 0.02 0.02 0.02 0.02
0.03 0.03 0.04 0.06 0.07 0.06 0.07 0.09 0.11 0.08 0.07 0.07 0.06 0.05 0.06 0.08 0.07 0.06 0.06 0.07 0.06 0.05 0.07 0.07 0.08 0.06 0.05 0.07 0.06 0.04 0.04 0.04 0.03 0.04 0.04 0.03 0.02 0.02 0.02 0.03 0.02 0.02 0.01
0.03 0.04 0.05 0.06 0.08 0.07 0.08 0.10 0.09 0.09 0.09 0.07 0.06 0.06 0.06 0.07 0.06 0.05 0.05 0.06 0.05 0.04 0.06 0.06 0.06 0.06 0.05 0.05 0.05 0.03 0.03 0.04 0.03 0.03 0.03 0.03 0.03 0.02 0.01 0.01 0.02 0.02 0.01
MSLP
1010.06 1010.24 1010.56 1010.97 1011.40 1011.77 1012.05 1012.20 1012.25 1012.23 1012.20 1012.21 1012.29 1012.45 1012.66 1012.91 1013.15 1013.35 1013.50 1013.60 1013.68 1013.76 1013.86 1014.00 1014.16 1014.34 1014.51 1014.64 1014.72 1014.77 1014.79 1014.81 1014.87 1014.97 1015.13 1015.34 1015.57 1015.80 1016.01 1016.19 1016.32 1016.43 1016.53
1009.91 1010.19 1010.60 1011.08 1011.56 1011.97 1012.26 1012.42 1012.46 1012.44 1012.41 1012.44 1012.55 1012.75 1013.00 1013.28 1013.53 1013.72 1013.84 1013.91 1013.95 1013.99 1014.08 1014.22 1014.40 1014.60 1014.79 1014.93 1015.02 1015.05 1015.05 1015.04 1015.07 1015.15 1015.31 1015.53 1015.79 1016.06 1016.31 1016.52 1016.68 1016.81 1016.92
1009.75 1010.12 1010.61 1011.17 1011.70 1012.16 1012.48 1012.65 1012.70 1012.70 1012.69 1012.74 1012.87 1013.09 1013.35 1013.63 1013.86 1014.02 1014.10 1014.12 1014.13 1014.15 1014.23 1014.37 1014.58 1014.81 1015.02 1015.19 1015.28 1015.30 1015.27 1015.24 1015.24 1015.31 1015.46 1015.69 1015.98 1016.28 1016.57 1016.81 1017.01 1017.16 1017.29
1009.61 1010.06 1010.62 1011.24 1011.84 1012.34 1012.70 1012.91 1013.00 1013.02 1013.04 1013.11 1013.26 1013.48 1013.74 1013.99 1014.19 1014.31 1014.34 1014.32 1014.29 1014.29 1014.37 1014.53 1014.77 1015.02 1015.26 1015.44 1015.53 1015.54 1015.49 1015.44 1015.42 1015.47 1015.63 1015.87 1016.17 1016.50 1016.81 1017.09 1017.32 1017.49 1017.64
1009.51 1010.02 1010.64 1011.32 1011.97 1012.52 1012.93 1013.19 1013.32 1013.38 1013.43 1013.52 1013.69 1013.91 1014.15 1014.37 1014.53 1014.60 1014.60 1014.54 1014.49 1014.49 1014.58 1014.76 1015.01 1015.29 1015.54 1015.71 1015.80 1015.79 1015.72 1015.65 1015.62 1015.67 1015.82 1016.07 1016.39 1016.73 1017.07 1017.36 1017.61 1017.80 1017.97
1009.48 1010.02 1010.67 1011.39 1012.08 1012.67 1013.12 1013.42 1013.60 1013.71 1013.81 1013.93 1014.11 1014.34 1014.57 1014.77 1014.90 1014.94 1014.91 1014.84 1014.78 1014.79 1014.89 1015.08 1015.34 1015.62 1015.86 1016.02 1016.08 1016.06 1015.97 1015.88 1015.84 1015.89 1016.06 1016.31 1016.64 1017.00 1017.34 1017.64 1017.89 1018.09 1018.26
1009.52 1010.06 1010.72 1011.44 1012.14 1012.75 1013.23 1013.58 1013.80 1013.96 1014.10 1014.27 1014.48 1014.71 1014.95 1015.14 1015.26 1015.30 1015.26 1015.20 1015.16 1015.18 1015.29 1015.48 1015.74 1016.00 1016.21 1016.34 1016.37 1016.31 1016.21 1016.11 1016.08 1016.14 1016.32 1016.59 1016.93 1017.29 1017.63 1017.92 1018.15 1018.34 1018.51
1009.64 1010.15 1010.77 1011.47 1012.15 1012.75 1013.25 1013.61 1013.88 1014.08 1014.27 1014.48 1014.72 1014.98 1015.24 1015.45 1015.58 1015.64 1015.63 1015.59 1015.57 1015.61 1015.72 1015.91 1016.14 1016.37 1016.54 1016.62 1016.61 1016.52 1016.41 1016.32 1016.30 1016.39 1016.60 1016.90 1017.25 1017.61 1017.94 1018.21 1018.41 1018.58 1018.72
1009.83 1010.29 1010.86 1011.49 1012.12 1012.69 1013.17 1013.54 1013.82 1014.06 1014.29 1014.54 1014.83 1015.13 1015.42 1015.66 1015.83 1015.92 1015.95 1015.94 1015.95 1016.01 1016.13 1016.30 1016.50 1016.67 1016.79 1016.82 1016.77 1016.67 1016.55 1016.48 1016.49 1016.63 1016.88 1017.22 1017.59 1017.95 1018.27 1018.51 1018.68 1018.80 1018.92
1010.08 1010.48 1010.98 1011.54 1012.10 1012.61 1013.05 1013.40 1013.68 1013.94 1014.20 1014.49 1014.81 1015.16 1015.49 1015.77 1015.98 1016.12 1016.18 1016.22 1016.25 1016.32 1016.43 1016.58 1016.74 1016.87 1016.94 1016.93 1016.85 1016.74 1016.64 1016.60 1016.67 1016.86 1017.16 1017.54 1017.94 1018.32 1018.62 1018.83 1018.97 1019.05 1019.12
1010.38 1010.74 1011.17 1011.65 1012.13 1012.57 1012.95 1013.27 1013.54 1013.80 1014.07 1014.39 1014.74 1015.12 1015.48 1015.80 1016.05 1016.22 1016.32 1016.38 1016.44 1016.51 1016.61 1016.73 1016.86 1016.95 1016.98 1016.95 1016.87 1016.77 1016.70 1016.71 1016.83 1017.08 1017.44 1017.87 1018.30 1018.69 1018.99 1019.18 1019.29 1019.33 1019.37
1010.71 1011.04 1011.42 1011.83 1012.24 1012.61 1012.93 1013.21 1013.45 1013.70 1013.98 1014.31 1014.68 1015.07 1015.45 1015.79 1016.06 1016.25 1016.37 1016.45 1016.51 1016.58 1016.67 1016.77 1016.87 1016.94 1016.97 1016.93 1016.87 1016.80 1016.77 1016.83 1017.01 1017.32 1017.73 1018.19 1018.66 1019.06 1019.36 1019.55 1019.64 1019.66 1019.66
1011.03 1011.36 1011.72 1012.09 1012.44 1012.76 1013.03 1013.26 1013.48 1013.71 1013.98 1014.30 1014.66 1015.05 1015.44 1015.78 1016.05 1016.25 1016.38 1016.46 1016.52 1016.58 1016.66 1016.76 1016.85 1016.92 1016.95 1016.95 1016.91 1016.89 1016.91 1017.02 1017.24 1017.58 1018.02 1018.51 1018.98 1019.40 1019.71 1019.91 1019.99 1020.00 1019.99
1011.30 1011.65 1012.01 1012.36 1012.69 1012.98 1013.22 1013.43 1013.62 1013.83 1014.08 1014.39 1014.73 1015.11 1015.47 1015.80 1016.07 1016.26 1016.38 1016.46 1016.52 1016.58 1016.66 1016.75 1016.85 1016.94 1017.01 1017.04 1017.05 1017.07 1017.13 1017.27 1017.51 1017.86 1018.30 1018.78 1019.26 1019.67 1019.99 1020.20 1020.30 1020.32 1020.32
1011.48 1011.86 1012.24 1012.60 1012.93 1013.21 1013.45 1013.65 1013.83 1014.03 1014.26 1014.54 1014.86 1015.21 1015.56 1015.86 1016.12 1016.30 1016.42 1016.50 1016.56 1016.62 1016.70 1016.81 1016.93 1017.06 1017.16 1017.24 1017.30 1017.36 1017.45 1017.59 1017.82 1018.15 1018.55 1018.99 1019.44 1019.84 1020.16 1020.39 1020.51 1020.57 1020.58
1011.51 1011.93 1012.35 1012.73 1013.08 1013.39 1013.64 1013.85 1014.04 1014.23 1014.45 1014.71 1015.01 1015.33 1015.66 1015.95 1016.20 1016.38 1016.51 1016.59 1016.66 1016.73 1016.83 1016.96 1017.12 1017.28 1017.43 1017.55 1017.65 1017.74 1017.83 1017.96 1018.14 1018.40 1018.73 1019.11 1019.50 1019.87 1020.19 1020.43 1020.59 1020.68 1020.74
1011.37 1011.83 1012.28 1012.70 1013.09 1013.43 1013.72 1013.96 1014.17 1014.37 1014.59 1014.84 1015.12 1015.42 1015.73 1016.02 1016.28 1016.47 1016.62 1016.73 1016.82 1016.92 1017.04 1017.19 1017.38 1017.57 1017.76 1017.92 1018.05 1018.14 1018.22 1018.32 1018.44 1018.61 1018.85 1019.13 1019.45 1019.77 1020.06 1020.31 1020.50 1020.64 1020.75
1011.08 1011.55 1012.03 1012.49 1012.93 1013.32 1013.66 1013.94 1014.19 1014.41 1014.63 1014.87 1015.14 1015.44 1015.75 1016.05 1016.32 1016.55 1016.74 1016.88 1017.01 1017.13 1017.28 1017.46 1017.66 1017.88 1018.09 1018.28 1018.42 1018.52 1018.58 1018.63 1018.68 1018.76 1018.89 1019.07 1019.30 1019.55 1019.82 1020.06 1020.28 1020.47 1020.62
1010.65 1011.14 1011.63 1012.13 1012.62 1013.06 1013.46 1013.80 1014.08 1014.33 1014.56 1014.81 1015.07 1015.37 1015.69 1016.01 1016.32 1016.59 1016.82 1017.02 1017.18 1017.34 1017.51 1017.71 1017.92 1018.15 1018.37 1018.57 1018.72 1018.82 1018.86 1018.86 1018.85 1018.85 1018.89 1018.97 1019.11 1019.29 1019.51 1019.74 1019.98 1020.19 1020.39
1010.15 1010.64 1011.14 1011.67 1012.20 1012.70 1013.16 1013.55 1013.88 1014.16 1014.41 1014.66 1014.93 1015.23 1015.57 1015.91 1016.26 1016.58 1016.86 1017.11 1017.32 1017.51 1017.70 1017.89 1018.11 1018.33 1018.55 1018.75 1018.90 1019.00 1019.04 1019.02 1018.97 1018.91 1018.87 1018.87 1018.93 1019.04 1019.21 1019.41 1019.64 1019.88 1020.11
1009.63 1010.10 1010.62 1011.18 1011.74 1012.29 1012.80 1013.25 1013.63 1013.94 1014.22 1014.48 1014.75 1015.06 1015.40 1015.77 1016.15 1016.52 1016.85 1017.15 1017.39 1017.61 1017.80 1018.00 1018.20 1018.41 1018.62 1018.81 1018.97 1019.08 1019.12 1019.11 1019.05 1018.96 1018.87 1018.81 1018.80 1018.85 1018.96 1019.13 1019.34 1019.58 1019.83
1009.10 1009.58 1010.10 1010.67 1011.27 1011.87 1012.43 1012.93 1013.36 1013.72 1014.02 1014.29 1014.57 1014.88 1015.23 1015.62 1016.02 1016.43 1016.80 1017.13 1017.41 1017.64 1017.84 1018.02 1018.20 1018.39 1018.59 1018.77 1018.94 1019.07 1019.14 1019.14 1019.10 1019.01 1018.90 1018.81 1018.75 1018.74 1018.80 1018.92 1019.09 1019.31 1019.56
1008.59 1009.06 1009.59 1010.17 1010.80 1011.43 1012.05 1012.60 1013.08 1013.48 1013.82 1014.12 1014.41 1014.72 1015.07 1015.47 1015.89 1016.31 1016.71 1017.07 1017.38 1017.62 1017.82 1017.99 1018.15 1018.32 1018.50 1018.68 1018.85 1019.00 1019.10 1019.15 1019.13 1019.07 1018.97 1018.86 1018.76 1018.71 1018.71 1018.77 1018.90 1019.09 1019.31
1008.07 1008.54 1009.06 1009.65 1010.29 1010.95 1011.61 1012.22 1012.76 1013.21 1013.60 1013.93 1014.24 1014.56 1014.92 1015.31 1015.74 1016.18 1016.60 1016.99 1017.31 1017.57 1017.78 1017.94 1018.09 1018.24 1018.40 1018.57 1018.74 1018.91 1019.05 1019.13 1019.16 1019.13 1019.04 1018.93 1018.81 1018.71 1018.66 1018.66 1018.73 1018.87 1019.07
1007.53 1007.98 1008.48 1009.05 1009.69 1010.38 1011.07 1011.74 1012.34 1012.87 1013.31 1013.69 1014.04 1014.38 1014.74 1015.14 1015.57 1016.02 1016.46 1016.87 1017.22 1017.51 1017.73 1017.90 1018.04 1018.18 1018.32 1018.48 1018.66 1018.83 1018.99 1019.11 1019.17 1019.17 1019.10 1018.99 1018.85 1018.71 1018.61 1018.55 1018.56 1018.64 1018.80
1006.94 1007.35 1007.82 1008.36 1008.98 1009.68 1010.40 1011.13 1011.80 1012.41 1012.93 1013.38 1013.77 1014.14 1014.53 1014.93 1015.37 1015.83 1016.30 1016.73 1017.12 1017.44 1017.69 1017.88 1018.03 1018.16 1018.29 1018.44 1018.60 1018.77 1018.94 1019.07 1019.15 1019.17 1019.12 1019.01 1018.85 1018.68 1018.53 1018.41 1018.36 1018.38 1018.49
Thickness
5797 5793 5783 5782 5781 5780 5778 5777 5776 5775 5774 5773 5772 5771 5770 5769 5768 5766 5765 5764 5763 5762 5761 5760 5758 5757 5756 5755 5754 5754 5753 5752 5751 5750 5749 5747 5746 5745 5744 5743 5744 5742 5737
5801 5792 5782 5781 5779 5778 5776 5775 5774 5773 5772 5771 5770 5769 5767 5767 5765 5764 5763 5762 5761 5760 5759 5758 5757 5755 5754 5753 5752 5751 5750 5750 5749 5748 5747 5745 5743 5742 5741 5741 5741 5739 5736
5800 5791 5783 5780 5778 5776 5774 5773 5772 5771 5770 5768 5768 5767 5765 5764 5763 5762 5761 5760 5759 5758 5757 5756 5755 5753 5752 5751 5750 5749 5748 5748 5747 5747 5748 5748 5743 5740 5739 5738 5737 5735 5733
5799 5791 5785 5778 5776 5774 5773 5771 5770 5768 5767 5766 5766 5765 5763 5762 5761 5760 5759 5758 5757 5756 5755 5754 5752 5751 5750 5749 5748 5747 5746 5746 5746 5748 5749 5747 5743 5738 5736 5735 5734 5733 5731
5797 5791 5782 5776 5774 5772 5771 5769 5768 5766 5765 5764 5763 5762 5761 5760 5759 5758 5757 5756 5755 5754 5753 5752 5750 5749 5748 5747 5746 5745 5744 5744 5746 5748 5747 5744 5740 5735 5734 5733 5732 5731 5729
5796 5790 5780 5775 5772 5770 5768 5767 5765 5764 5763 5762 5761 5760 5759 5758 5757 5756 5755 5754 5753 5752 5750 5749 5748 5747 5745 5745 5744 5743 5743 5744 5747 5747 5745 5742 5738 5733 5732 5731 5730 5728 5727
5796 5789 5779 5773 5771 5768 5767 5765 5764 5762 5761 5760 5759 5758 5757 5756 5755 5754 5753 5752 5751 5749 5748 5747 5746 5745 5744 5743 5742 5741 5741 5743 5748 5745 5742 5739 5734 5731 5730 5728 5727 5726 5725
5795 5789 5778 5771 5769 5767 5765 5763 5762 5761 5759 5758 5757 5756 5755 5754 5753 5752 5751 5750 5748 5747 5746 5745 5744 5743 5742 5741 5740 5740 5740 5742 5745 5744 5740 5736 5731 5729 5727 5726 5725 5723 5722
5794 5787 5779 5773 5768 5765 5763 5761 5760 5759 5757 5756 5755 5754 5753 5752 5751 5750 5749 5748 5746 5745 5744 5743 5742 5741 5740 5740 5739 5738 5739 5741 5745 5742 5739 5734 5728 5727 5725 5724 5723 5721 5720
5789 5785 5780 5775 5770 5767 5763 5760 5758 5757 5756 5754 5753 5752 5751 5750 5749 5748 5747 5746 5744 5743 5742 5742 5741 5740 5739 5738 5737 5737 5738 5740 5743 5740 5736 5730 5726 5725 5723 5722 5721 5719 5718
5783 5782 5779 5775 5771 5769 5766 5760 5758 5755 5754 5753 5752 5751 5751 5753 5752 5749 5746 5744 5743 5742 5741 5740 5739 5739 5738 5737 5736 5736 5738 5743 5741 5739 5733 5727 5724 5723 5721 5720 5719 5717 5716
5778 5778 5778 5775 5771 5769 5767 5761 5759 5758 5755 5755 5754 5752 5752 5751 5751 5750 5743 5742 5741 5740 5739 5739 5738 5739 5740 5741 5738 5737 5741 5741 5740 5736 5729 5725 5723 5721 5720 5718 5717 5715 5714
5778 5776 5775 5772 5770 5769 5766 5762 5761 5759 5756 5755 5753 5752 5751 5751 5750 5749 5746 5743 5741 5741 5742 5739 5741 5743 5743 5741 5741 5742 5741 5740 5739 5736 5728 5723 5721 5720 5718 5717 5715 5714 5713
5777 5775 5773 5770 5767 5766 5765 5762 5760 5759 5757 5755 5752 5751 5751 5751 5749 5749 5746 5745 5744 5743 5742 5743 5741 5741 5740 5740 5740 5739 5739 5739 5737 5733 5725 5722 5720 5719 5717 5716 5714 5713 5711
5776 5774 5772 5768 5765 5763 5761 5760 5760 5758 5757 5755 5752 5750 5749 5750 5749 5748 5745 5744 5745 5744 5742 5742 5742 5740 5739 5738 5739 5737 5737 5735 5734 5733 5726 5721 5719 5718 5716 5715 5714 5712 5711
5777 5774 5771 5766 5763 5760 5758 5757 5757 5756 5754 5754 5752 5750 5748 5749 5747 5746 5744 5743 5744 5743 5743 5742 5741 5739 5739 5738 5737 5736 5735 5735 5733 5731 5729 5723 5720 5718 5716 5715 5713 5712 5711
5777 5774 5769 5765 5762 5758 5757 5756 5755 5754 5753 5753 5751 5748 5746 5747 5745 5745 5745 5743 5743 5741 5739 5739 5739 5739 5738 5738 5736 5736 5735 5733 5732 5730 5729 5727 5723 5719 5717 5715 5714 5712 5711
5778 5773 5768 5765 5761 5757 5756 5754 5755 5754 5752 5751 5750 5748 5745 5745 5743 5743 5744 5744 5741 5741 5741 5739 5740 5739 5738 5737 5735 5736 5735 5732 5731 5730 5729 5727 5725 5723 5719 5716 5714 5713 5711
5778 5773 5767 5765 5760 5757 5754 5752 5752 5750 5749 5749 5748 5747 5745 5744 5743 5743 5743 5742 5741 5742 5742 5742 5741 5740 5737 5735 5736 5734 5735 5733 5731 5731 5729 5727 5725 5724 5722 5717 5715 5713 5712
5777 5773 5768 5764 5760 5757 5754 5751 5750 5748 5747 5747 5747 5745 5744 5743 5742 5743 5742 5740 5741 5742 5741 5740 5738 5737 5736 5736 5738 5735 5734 5734 5732 5731 5730 5729 5726 5725 5724 5722 5718 5715 5713
5776 5771 5767 5763 5760 5756 5753 5751 5748 5746 5746 5746 5746 5744 5742 5743 5742 5741 5743 5740 5740 5741 5739 5739 5738 5736 5736 5736 5733 5731 5732 5734 5733 5732 5731 5731 5729 5727 5724 5722 5721 5719 5715
5776 5771 5766 5763 5760 5757 5755 5752 5750 5748 5747 5746 5745 5743 5742 5742 5741 5741 5741 5741 5740 5739 5737 5737 5736 5736 5737 5736 5732 5728 5726 5728 5730 5735 5733 5730 5730 5728 5726 5724 5721 5718 5718
5776 5772 5768 5764 5761 5757 5755 5751 5748 5746 5745 5744 5742 5742 5742 5742 5741 5741 5740 5741 5739 5740 5738 5736 5736 5733 5733 5735 5736 5732 5726 5724 5729 5733 5732 5732 5729 5728 5728 5726 5723 5721 5718
5778 5774 5770 5765 5761 5757 5754 5751 5747 5745 5743 5744 5744 5744 5743 5742 5741 5740 5739 5739 5738 5740 5738 5738 5738 5736 5733 5732 5733 5733 5733 5733 5727 5726 5731 5733 5731 5728 5729 5729 5727 5723 5720
5780 5775 5770 5765 5761 5758 5755 5751 5748 5747 5746 5746 5745 5744 5742 5742 5741 5741 5739 5738 5737 5738 5738 5737 5736 5735 5736 5733 5733 5733 5732 5731 5732 5727 5725 5729 5731 5732 5731 5729 5727 5725 5722
5781 5775 5770 5765 5760 5758 5755 5752 5749 5748 5746 5745 5743 5743 5742 5742 5742 5741 5740 5738 5738 5738 5736 5736 5735 5735 5735 5734 5734 5735 5733 5731 5730 5730 5727 5726 5728 5731 5732 5731 5729 5726 5724